| time (UTC) | temp F | wind direction | speed MPH | gust MPH | rain 1hr in | rain 24hr in | rain mn in | humidity % | barometer mb |
| 20260505183354 | 61 | 180 | 7.0 | 0.0 | 0.00 | 0.00 | 0.00 | 63 | 1014.0 |
| 20260505181851 | 61 | 180 | 7.0 | 0.0 | 0.00 | 0.00 | 0.00 | 63 | 1014.0 |
| 20260505180354 | 61 | 180 | 7.0 | 0.0 | 0.00 | 0.00 | 0.00 | 63 | 1014.0 |
| 20260505174848 | 0 | 180 | 5.0 | 0.0 | 0.00 | 0.00 | 0.00 | 1014.0 | |
| 20260505173353 | 0 | 180 | 5.0 | 0.0 | 0.00 | 0.00 | 0.00 | 1014.0 | |
| 20260505171853 | 0 | 180 | 5.0 | 0.0 | 0.00 | 0.00 | 0.00 | 1014.0 | |
| 20260505170354 | 0 | 180 | 5.0 | 0.0 | 0.00 | 0.00 | 0.00 | 1014.0 | |
| 20260505164853 | 73 | 180 | 5.0 | 0.0 | 0.00 | 0.00 | 0.00 | 38 | 1013.0 |
| 20260505163354 | 73 | 180 | 5.0 | 0.0 | 0.00 | 0.00 | 0.00 | 38 | 1013.0 |
| 20260505161854 | 73 | 180 | 5.0 | 0.0 | 0.00 | 0.00 | 0.00 | 38 | 1013.0 |
| 20260505160354 | 73 | 180 | 5.0 | 0.0 | 0.00 | 0.00 | 0.00 | 38 | 1013.0 |
| 20260505153354 | 73 | 210 | 7.0 | 0.0 | 0.00 | 0.00 | 0.00 | 38 | 1014.0 |
| 20260505151902 | 73 | 210 | 7.0 | 0.0 | 0.00 | 0.00 | 0.00 | 38 | 1014.0 |
| 20260505150354 | 73 | 210 | 7.0 | 0.0 | 0.00 | 0.00 | 0.00 | 38 | 1014.0 |
| 20260505140353 | 73 | 150 | 7.0 | 0.0 | 0.00 | 0.00 | 0.00 | 41 | 1014.0 |
| 20260505124854 | 73 | 190 | 5.0 | 0.0 | 0.00 | 0.00 | 0.00 | 41 | 1015.0 |
| 20260505123353 | 73 | 190 | 5.0 | 0.0 | 0.00 | 0.00 | 0.00 | 41 | 1015.0 |
| 20260505121853 | 73 | 190 | 5.0 | 0.0 | 0.00 | 0.00 | 0.00 | 41 | 1015.0 |
| 20260505120405 | 0 | 0.0 | 0.0 | 0.00 | 0.00 | 0.00 | |||
| 20260505114901 | 73 | 140 | 7.0 | 0.0 | 0.00 | 0.00 | 0.00 | 38 | 1015.0 |
| 20260505113424 | 73 | 140 | 7.0 | 0.0 | 0.00 | 0.00 | 0.00 | 38 | 1015.0 |
| 20260505111854 | 73 | 140 | 7.0 | 0.0 | 0.00 | 0.00 | 0.00 | 38 | 1015.0 |
| 20260505110354 | 73 | 140 | 7.0 | 0.0 | 0.00 | 0.00 | 0.00 | 38 | 1015.0 |
| 20260505101854 | 70 | 140 | 5.0 | 0.0 | 0.00 | 0.00 | 0.00 | 50 | 1015.0 |
| 20260505100354 | 70 | 140 | 5.0 | 0.0 | 0.00 | 0.00 | 0.00 | 50 | 1015.0 |
| 20260505094855 | 68 | 170 | 5.0 | 0.0 | 0.00 | 0.00 | 0.00 | 78 | 1016.0 |
| 20260505093353 | 68 | 170 | 5.0 | 0.0 | 0.00 | 0.00 | 0.00 | 78 | 1016.0 |
| 20260505091853 | 68 | 170 | 5.0 | 0.0 | 0.00 | 0.00 | 0.00 | 78 | 1016.0 |
| 20260505090353 | 68 | 170 | 5.0 | 0.0 | 0.00 | 0.00 | 0.00 | 78 | 1016.0 |
| 20260505084853 | 63 | 100 | 5.0 | 0.0 | 0.00 | 0.00 | 0.00 | 64 | 1016.0 |
| 20260505083354 | 63 | 100 | 5.0 | 0.0 | 0.00 | 0.00 | 0.00 | 64 | 1016.0 |
| 20260505081854 | 63 | 100 | 5.0 | 0.0 | 0.00 | 0.00 | 0.00 | 64 | 1016.0 |
| 20260505080359 | 63 | 100 | 5.0 | 0.0 | 0.00 | 0.00 | 0.00 | 64 | 1016.0 |
| 20260505074916 | 0 | 0.0 | 0.0 | 0.00 | 0.00 | 0.00 | |||
| 20260505073353 | 61 | 70 | 7.0 | 0.0 | 0.00 | 0.00 | 0.00 | 68 | 1016.0 |
| 20260505071853 | 61 | 70 | 7.0 | 0.0 | 0.00 | 0.00 | 0.00 | 68 | 1016.0 |
| 20260505070353 | 61 | 70 | 7.0 | 0.0 | 0.00 | 0.00 | 0.00 | 68 | 1016.0 |
| 20260505064853 | 55 | 40 | 5.0 | 0.0 | 0.00 | 0.00 | 0.00 | 72 | 1016.0 |
| 20260505063354 | 55 | 40 | 5.0 | 0.0 | 0.00 | 0.00 | 0.00 | 72 | 1016.0 |
| 20260505061854 | 55 | 40 | 5.0 | 0.0 | 0.00 | 0.00 | 0.00 | 72 | 1016.0 |
| 20260505060354 | 55 | 40 | 5.0 | 0.0 | 0.00 | 0.00 | 0.00 | 72 | 1016.0 |
| 20260505054853 | 50 | 40 | 5.0 | 0.0 | 0.00 | 0.00 | 0.00 | 82 | 1016.0 |
| 20260505053354 | 50 | 40 | 5.0 | 0.0 | 0.00 | 0.00 | 0.00 | 82 | 1016.0 |
| 20260505051853 | 50 | 40 | 5.0 | 0.0 | 0.00 | 0.00 | 0.00 | 82 | 1016.0 |
| 20260505050353 | 50 | 40 | 5.0 | 0.0 | 0.00 | 0.00 | 0.00 | 82 | 1016.0 |
| 20260505040353 | 45 | 2.0 | 0.0 | 0.00 | 0.00 | 0.00 | 93 | 1015.0 | |
| 20260505034850 | 46 | 300 | 7.0 | 0.0 | 0.00 | 0.00 | 0.00 | 87 | 1015.0 |
| 20260505033353 | 46 | 300 | 7.0 | 0.0 | 0.00 | 0.00 | 0.00 | 87 | 1015.0 |
| 20260505031853 | 46 | 300 | 7.0 | 0.0 | 0.00 | 0.00 | 0.00 | 87 | 1015.0 |
| 20260505030353 | 46 | 300 | 7.0 | 0.0 | 0.00 | 0.00 | 0.00 | 87 | 1015.0 |
| 20260505024853 | 45 | 3.0 | 0.0 | 0.00 | 0.00 | 0.00 | 81 | 1016.0 | |
| 20260505023353 | 45 | 3.0 | 0.0 | 0.00 | 0.00 | 0.00 | 81 | 1016.0 | |
| 20260505021853 | 45 | 3.0 | 0.0 | 0.00 | 0.00 | 0.00 | 81 | 1016.0 | |
| 20260505020353 | 45 | 3.0 | 0.0 | 0.00 | 0.00 | 0.00 | 81 | 1016.0 | |
| 20260505014847 | 46 | 3.0 | 0.0 | 0.00 | 0.00 | 0.00 | 82 | 1016.0 | |
| 20260505013354 | 46 | 3.0 | 0.0 | 0.00 | 0.00 | 0.00 | 82 | 1016.0 | |
| 20260505011847 | 46 | 3.0 | 0.0 | 0.00 | 0.00 | 0.00 | 82 | 1016.0 | |
| 20260505010354 | 46 | 3.0 | 0.0 | 0.00 | 0.00 | 0.00 | 82 | 1016.0 | |
| 20260505004850 | 46 | 3.0 | 0.0 | 0.00 | 0.00 | 0.00 | 82 | 1016.0 | |
| 20260505003353 | 48 | 3.0 | 0.0 | 0.00 | 0.00 | 0.00 | 76 | 1015.0 | |
| 20260505001851 | 48 | 3.0 | 0.0 | 0.00 | 0.00 | 0.00 | 76 | 1015.0 | |
| 20260505000354 | 48 | 3.0 | 0.0 | 0.00 | 0.00 | 0.00 | 76 | 1015.0 | |
| 20260504234850 | 48 | 3.0 | 0.0 | 0.00 | 0.00 | 0.00 | 82 | 1016.0 | |
| 20260504233350 | 48 | 3.0 | 0.0 | 0.00 | 0.00 | 0.00 | 82 | 1016.0 | |
| 20260504231851 | 48 | 3.0 | 0.0 | 0.00 | 0.00 | 0.00 | 82 | 1016.0 | |
| 20260504230351 | 48 | 3.0 | 0.0 | 0.00 | 0.00 | 0.00 | 82 | 1016.0 | |
| 20260504224847 | 0 | 0.0 | 0.0 | 0.00 | 0.00 | 0.00 | |||
| 20260504223350 | 0 | 0.0 | 0.0 | 0.00 | 0.00 | 0.00 | |||
| 20260504221913 | 0 | 0.0 | 0.0 | 0.00 | 0.00 | 0.00 | |||
| 20260504220350 | 0 | 0.0 | 0.0 | 0.00 | 0.00 | 0.00 | |||
| 20260504214850 | 50 | 3.0 | 0.0 | 0.00 | 0.00 | 0.00 | 82 | 1015.0 | |
| 20260504213409 | 50 | 3.0 | 0.0 | 0.00 | 0.00 | 0.00 | 82 | 1015.0 | |
| 20260504211853 | 50 | 3.0 | 0.0 | 0.00 | 0.00 | 0.00 | 82 | 1015.0 | |
| 20260504210353 | 50 | 3.0 | 0.0 | 0.00 | 0.00 | 0.00 | 82 | 1015.0 | |
| 20260504204850 | 52 | 3.0 | 0.0 | 0.00 | 0.00 | 0.00 | 77 | 1015.0 | |
| 20260504203355 | 52 | 3.0 | 0.0 | 0.00 | 0.00 | 0.00 | 77 | 1015.0 | |
| 20260504201850 | 52 | 3.0 | 0.0 | 0.00 | 0.00 | 0.00 | 77 | 1015.0 | |
| 20260504200354 | 52 | 3.0 | 0.0 | 0.00 | 0.00 | 0.00 | 77 | 1015.0 | |
| 20260504194854 | 55 | 270 | 3.0 | 0.0 | 0.00 | 0.00 | 0.00 | 67 | 1015.0 |
| 20260504193354 | 55 | 270 | 3.0 | 0.0 | 0.00 | 0.00 | 0.00 | 67 | 1015.0 |
| 20260504191853 | 55 | 270 | 3.0 | 0.0 | 0.00 | 0.00 | 0.00 | 67 | 1015.0 |
| 20260504190354 | 55 | 270 | 3.0 | 0.0 | 0.00 | 0.00 | 0.00 | 67 | 1015.0 |
| 20260504184851 | 0 | 0.0 | 0.0 | 0.00 | 0.00 | 0.00 |